VLG8871 LEAL-LEPA

Flight info

Callsign VLG8871
Flight time 0h 37m
Altitude 24000
Route MITOS N851 RUXET
Aircraft A20N/M-SDE2E3FGHIRWXY/LB1

Departure

Time 2026-05-04 20:40
Airport Alicante-Elche Miguel Hernández Airport (LEAL)

Arrival

Time 2026-05-04 21:17
Airport Palma de Mallorca Airport (LEPA)
Time Latitude Longitude Altitude Speed Heading
2026-05-04 20:32 38.28673 -0.54933 76 ft 0 kts 189°
2026-05-04 20:34 38.28663 -0.54935 76 ft 5 kts 189°
2026-05-04 20:34 38.28612 -0.54946 76 ft 9 kts 189°
2026-05-04 20:34 38.28539 -0.54962 76 ft 11 kts 189°
2026-05-04 20:34 38.28454 -0.54979 77 ft 12 kts 207°
2026-05-04 20:35 38.28417 -0.55069 79 ft 10 kts 249°
2026-05-04 20:35 38.28388 -0.55149 82 ft 11 kts 239°
2026-05-04 20:35 38.28331 -0.55273 86 ft 20 kts 253°
2026-05-04 20:35 38.28345 -0.55470 93 ft 21 kts 281°
2026-05-04 20:36 38.28368 -0.55634 98 ft 14 kts 278°
2026-05-04 20:36 38.28388 -0.55767 101 ft 14 kts 277°
2026-05-04 20:36 38.28404 -0.55891 105 ft 13 kts 279°
2026-05-04 20:36 38.28423 -0.56030 108 ft 18 kts 279°
2026-05-04 20:37 38.28449 -0.56210 111 ft 22 kts 280°
2026-05-04 20:37 38.28478 -0.56417 117 ft 24 kts 279°
2026-05-04 20:37 38.28511 -0.56641 123 ft 22 kts 284°
2026-05-04 20:37 38.28524 -0.56774 127 ft 15 kts 281°
2026-05-04 20:38 38.28546 -0.56912 132 ft 17 kts 281°
2026-05-04 20:38 38.28571 -0.57077 138 ft 21 kts 279°
2026-05-04 20:38 38.28601 -0.57295 148 ft 22 kts 279°
2026-05-04 20:38 38.28579 -0.57406 151 ft 12 kts 207°
2026-05-04 20:39 38.28498 -0.57439 152 ft 12 kts 187°
2026-05-04 20:39 38.28440 -0.57396 150 ft 2 kts 101°
2026-05-04 20:39 38.28432 -0.57342 148 ft 30 kts 100°
2026-05-04 20:39 38.28347 -0.56731 125 ft 107 kts 99°
2026-05-04 20:40 38.28181 -0.55540 113 ft 163 kts 99°
2026-05-04 20:40 38.27973 -0.54050 580 ft 174 kts 100°
2026-05-04 20:40 38.27737 -0.52569 1354 ft 172 kts 101°
2026-05-04 20:40 38.27489 -0.51111 2033 ft 173 kts 99°
2026-05-04 20:41 38.27571 -0.49557 2432 ft 186 kts 65°
2026-05-04 20:41 38.28291 -0.48121 2843 ft 202 kts 55°
2026-05-04 20:41 38.29108 -0.46565 3273 ft 218 kts 56°
2026-05-04 20:41 38.29982 -0.44875 3658 ft 240 kts 56°
2026-05-04 20:42 38.30896 -0.43097 4375 ft 246 kts 56°
2026-05-04 20:42 38.31833 -0.41278 5142 ft 250 kts 56°
2026-05-04 20:42 38.32695 -0.39347 5884 ft 256 kts 66°
2026-05-04 20:42 38.33356 -0.37207 6653 ft 261 kts 70°
2026-05-04 20:43 38.33983 -0.35015 7288 ft 272 kts 70°
2026-05-04 20:43 38.34659 -0.32710 7783 ft 289 kts 70°
2026-05-04 20:43 38.35404 -0.30255 8491 ft 298 kts 69°
2026-05-04 20:43 38.36165 -0.27797 9313 ft 303 kts 69°
2026-05-04 20:44 38.36978 -0.25312 10110 ft 308 kts 68°
2026-05-04 20:44 38.37825 -0.22787 10724 ft 319 kts 67°
2026-05-04 20:44 38.38720 -0.20122 11156 ft 336 kts 67°
2026-05-04 20:44 38.39665 -0.17299 11549 ft 355 kts 67°
2026-05-04 20:45 38.40650 -0.14349 11905 ft 373 kts 67°
2026-05-04 20:45 38.41684 -0.11240 12392 ft 385 kts 67°
2026-05-04 20:45 38.42736 -0.08070 13086 ft 390 kts 67°
2026-05-04 20:45 38.43805 -0.04845 13798 ft 393 kts 67°
2026-05-04 20:46 38.44876 -0.01611 14503 ft 397 kts 67°
2026-05-04 20:46 38.45933 0.01624 15185 ft 401 kts 68°
2026-05-04 20:46 38.46994 0.04915 15822 ft 405 kts 68°
2026-05-04 20:46 38.48066 0.08256 16471 ft 408 kts 68°
2026-05-04 20:47 38.49141 0.11609 17097 ft 412 kts 68°
2026-05-04 20:47 38.50229 0.15002 17696 ft 416 kts 68°
2026-05-04 20:47 38.51323 0.18420 18281 ft 419 kts 68°
2026-05-04 20:47 38.52428 0.21875 18846 ft 424 kts 68°
2026-05-04 20:48 38.53554 0.25398 19398 ft 428 kts 68°
2026-05-04 20:48 38.54679 0.28921 19939 ft 432 kts 68°
2026-05-04 20:48 38.55807 0.32463 20463 ft 436 kts 68°
2026-05-04 20:48 38.56949 0.36051 20967 ft 441 kts 68°
2026-05-04 20:49 38.58108 0.39700 21478 ft 444 kts 68°
2026-05-04 20:49 38.59277 0.43382 21977 ft 448 kts 68°
2026-05-04 20:49 38.60439 0.47046 22472 ft 452 kts 68°
2026-05-04 20:49 38.61628 0.50805 22956 ft 455 kts 68°
2026-05-04 20:50 38.62805 0.54528 23418 ft 459 kts 68°
2026-05-04 20:50 38.64014 0.58359 23856 ft 463 kts 68°
2026-05-04 20:50 38.65200 0.62123 24036 ft 465 kts 68°
2026-05-04 20:50 38.66287 0.66046 24038 ft 465 kts 73°
2026-05-04 20:51 38.67112 0.70032 24041 ft 465 kts 78°
2026-05-04 20:51 38.67680 0.74079 24044 ft 465 kts 82°
2026-05-04 20:51 38.68140 0.78170 24045 ft 464 kts 83°
2026-05-04 20:51 38.68578 0.82277 24045 ft 464 kts 83°
2026-05-04 20:52 38.69011 0.86351 24044 ft 464 kts 83°
2026-05-04 20:52 38.69452 0.90457 24041 ft 464 kts 83°
2026-05-04 20:52 38.69892 0.94521 24043 ft 464 kts 83°
2026-05-04 20:52 38.70338 0.98634 24043 ft 464 kts 83°
2026-05-04 20:53 38.70779 1.02690 24043 ft 464 kts 83°
2026-05-04 20:53 38.71225 1.06804 24042 ft 464 kts 83°
2026-05-04 20:53 38.71669 1.10898 24046 ft 464 kts 83°
2026-05-04 20:53 38.72109 1.14971 24045 ft 465 kts 83°
2026-05-04 20:54 38.72549 1.19057 24047 ft 465 kts 83°
2026-05-04 20:54 38.72992 1.23181 24042 ft 465 kts 83°
2026-05-04 20:54 38.73430 1.27286 24046 ft 464 kts 83°
2026-05-04 20:54 38.73869 1.31399 24045 ft 464 kts 83°
2026-05-04 20:55 38.74307 1.35529 24048 ft 464 kts 83°
2026-05-04 20:55 38.74743 1.39657 24050 ft 464 kts 83°
2026-05-04 20:55 38.75175 1.43752 24050 ft 464 kts 83°
2026-05-04 20:55 38.75611 1.47905 24050 ft 465 kts 83°
2026-05-04 20:56 38.76041 1.52005 24049 ft 465 kts 83°
2026-05-04 20:56 38.76469 1.56101 24053 ft 465 kts 83°
2026-05-04 20:56 38.76898 1.60238 24050 ft 465 kts 83°
2026-05-04 20:56 38.77320 1.64316 24046 ft 465 kts 83°
2026-05-04 20:57 38.77744 1.68421 24046 ft 465 kts 83°
2026-05-04 20:57 38.78166 1.72529 24049 ft 465 kts 83°
2026-05-04 20:57 38.78585 1.76625 24048 ft 465 kts 83°
2026-05-04 20:57 38.79005 1.80752 24045 ft 465 kts 83°
2026-05-04 20:58 38.79420 1.84835 24046 ft 465 kts 83°
2026-05-04 20:58 38.79899 1.88948 24034 ft 465 kts 78°
2026-05-04 20:58 38.80880 1.92830 23786 ft 462 kts 65°
2026-05-04 20:58 38.82451 1.96391 22950 ft 464 kts 53°
2026-05-04 20:59 38.84434 1.99717 22038 ft 466 kts 50°
2026-05-04 20:59 38.86433 2.02903 21392 ft 462 kts 50°
2026-05-04 20:59 38.88446 2.06119 20817 ft 456 kts 50°
2026-05-04 20:59 38.90399 2.09278 20234 ft 451 kts 50°
2026-05-04 21:00 38.92340 2.12455 19644 ft 446 kts 51°
2026-05-04 21:00 38.94209 2.15542 19060 ft 441 kts 51°
2026-05-04 21:00 38.96090 2.18659 18465 ft 436 kts 51°
2026-05-04 21:00 38.97944 2.21739 17876 ft 431 kts 51°
2026-05-04 21:01 38.99760 2.24760 17293 ft 427 kts 51°
2026-05-04 21:01 39.01578 2.27781 16679 ft 424 kts 51°
2026-05-04 21:01 39.03365 2.30754 16065 ft 420 kts 51°
2026-05-04 21:01 39.05143 2.33712 15372 ft 420 kts 51°
2026-05-04 21:02 39.06932 2.36696 14841 ft 413 kts 51°
2026-05-04 21:02 39.08650 2.39567 14530 ft 402 kts 51°
2026-05-04 21:02 39.10337 2.42391 14334 ft 388 kts 51°
2026-05-04 21:02 39.11941 2.45078 14147 ft 376 kts 51°
2026-05-04 21:03 39.13508 2.47703 13966 ft 363 kts 51°
2026-05-04 21:03 39.15040 2.50235 13806 ft 351 kts 48°
2026-05-04 21:03 39.16730 2.52388 13615 ft 339 kts 37°
2026-05-04 21:03 39.18604 2.54149 13346 ft 331 kts 32°
2026-05-04 21:04 39.20519 2.55798 13014 ft 326 kts 31°
2026-05-04 21:04 39.22405 2.57403 12629 ft 322 kts 31°
2026-05-04 21:04 39.24258 2.58990 12151 ft 318 kts 32°
2026-05-04 21:04 39.26082 2.60566 11742 ft 311 kts 32°
2026-05-04 21:05 39.27861 2.62111 11378 ft 303 kts 32°
2026-05-04 21:05 39.29580 2.63610 11032 ft 297 kts 32°
2026-05-04 21:05 39.31284 2.65098 10705 ft 295 kts 33°
2026-05-04 21:05 39.32978 2.66578 10345 ft 294 kts 33°
2026-05-04 21:06 39.34678 2.68065 9945 ft 291 kts 33°
2026-05-04 21:06 39.36344 2.69525 9673 ft 289 kts 33°
2026-05-04 21:06 39.38003 2.70978 9380 ft 287 kts 33°
2026-05-04 21:06 39.39658 2.72427 9015 ft 286 kts 33°
2026-05-04 21:07 39.41302 2.73869 8714 ft 284 kts 33°
2026-05-04 21:07 39.42878 2.75350 8400 ft 283 kts 42°
2026-05-04 21:07 39.44143 2.77283 8080 ft 282 kts 58°
2026-05-04 21:07 39.45080 2.79508 7763 ft 281 kts 64°
2026-05-04 21:08 39.45947 2.81776 7441 ft 280 kts 64°
2026-05-04 21:08 39.46799 2.84021 7122 ft 278 kts 64°
2026-05-04 21:08 39.47664 2.86270 6800 ft 277 kts 64°
2026-05-04 21:08 39.48517 2.88466 6485 ft 275 kts 64°
2026-05-04 21:09 39.49383 2.90678 6165 ft 273 kts 63°
2026-05-04 21:09 39.50245 2.92876 5863 ft 272 kts 63°
2026-05-04 21:09 39.51095 2.95043 5534 ft 271 kts 63°
2026-05-04 21:09 39.51930 2.97171 5405 ft 261 kts 63°
2026-05-04 21:10 39.52736 2.99227 5336 ft 249 kts 63°
2026-05-04 21:10 39.53510 3.01200 5102 ft 245 kts 63°
2026-05-04 21:10 39.54295 3.03181 4735 ft 247 kts 60°
2026-05-04 21:10 39.55466 3.04770 4425 ft 243 kts 25°
2026-05-04 21:11 39.57064 3.05082 4192 ft 232 kts 346°
2026-05-04 21:11 39.58534 3.04293 3928 ft 228 kts 329°
2026-05-04 21:11 39.59855 3.03153 3603 ft 229 kts 323°
2026-05-04 21:11 39.61083 3.01868 3310 ft 227 kts 319°
2026-05-04 21:12 39.62247 3.00474 3186 ft 228 kts 315°
2026-05-04 21:12 39.63317 2.98949 3045 ft 222 kts 301°
2026-05-04 21:12 39.63702 2.97112 2934 ft 209 kts 269°
2026-05-04 21:12 39.63593 2.95298 2950 ft 194 kts 261°
2026-05-04 21:13 39.63332 2.93648 2852 ft 178 kts 253°
2026-05-04 21:13 39.62923 2.92192 2736 ft 165 kts 244°
2026-05-04 21:13 39.62413 2.90855 2557 ft 169 kts 241°
2026-05-04 21:13 39.61847 2.89521 2333 ft 169 kts 239°
2026-05-04 21:14 39.61251 2.88218 2112 ft 168 kts 238°
2026-05-04 21:14 39.60645 2.86932 1893 ft 162 kts 237°
2026-05-04 21:14 39.60066 2.85716 1690 ft 152 kts 237°
2026-05-04 21:14 39.59533 2.84596 1475 ft 141 kts 238°
2026-05-04 21:15 39.59021 2.83515 1304 ft 140 kts 238°
2026-05-04 21:15 39.58513 2.82446 1136 ft 139 kts 238°
2026-05-04 21:15 39.58020 2.81381 965 ft 138 kts 238°
2026-05-04 21:15 39.57511 2.80332 790 ft 136 kts 237°
2026-05-04 21:16 39.57014 2.79296 609 ft 136 kts 238°
2026-05-04 21:16 39.56528 2.78248 444 ft 135 kts 239°
2026-05-04 21:16 39.56035 2.77203 274 ft 134 kts 237°
2026-05-04 21:16 39.55546 2.76187 111 ft 132 kts 238°
2026-05-04 21:17 39.55112 2.75263 48 ft 90 kts 240°
2026-05-04 21:17 39.54834 2.74677 47 ft 63 kts 239°
2026-05-04 21:17 39.54649 2.74281 46 ft 35 kts 238°
2026-05-04 21:17 39.54559 2.74016 46 ft 25 kts 259°